Weather History for KRHI - July, 2013

Change the Weather History Date:

Thursday, July 11, 2013

  Actual Average Record
Temperature  
Mean Temperature 65 °F 67 °F  
Max Temperature 79 °F 79 °F 106 °F (1936)
Min Temperature 50 °F 55 °F 41 °F (1945)
Degree Days  
Heating Degree Days 0 2  
Month to date heating degree days 10 22  
Since 1 June heating degree days 184 156  
Since 1 July heating degree days 10 22  
Cooling Degree Days 0 4  
Month to date cooling degree days 50 34  
Year to date cooling degree days 104 99  
Since 1 June cooling degree days 90 87  
Growing Degree Days 14 (Base 50)    
Moisture  
Dew Point 51 °F    
Average Humidity 64    
Maximum Humidity 93    
Minimum Humidity 35    
Precipitation  
Precipitation 0.00 in 0.13 in 0.78 in (1935)
Month to date precipitation 1.59 1.48  
Year to date precipitation 20.22 15.05  
Snow  
Snow 0.00 in - 0.00 in ()
Month to date snowfall 0.0  
Since 1 June snowfall 0.0  
Since 1 July snowfall 0.0  
Snow Depth 0.00 in    
Sea Level Pressure  
Sea Level Pressure 30.11 in    
Wind  
Wind Speed 3 mph (WSW)    
Max Wind Speed 10 mph    
Max Gust Speed 13 mph    
Visibility 8 miles    
Events Fog    
T = Trace of Precipitation, MM = Missing Value Source: NWS Daily Summary

Daily Weather History Graph

Daily Weather History Graph

Search for Another Location

Airport or City:

Trip Planner

Search our weather history database for the weather conditions in past years. The results will help you decide how hot, cold, wet, or windy it might be!

Date:

Astronomy

Jul. 11, 2013 Rise Set
Actual Time 5:19 AM CDT 8:46 PM CDT
Civil Twilight 4:42 AM CDT 9:23 PM CDT
Nautical Twilight 3:54 AM CDT 10:11 PM CDT
Astronomical Twilight 2:51 AM CDT 11:14 PM CDT
Moon 8:51 AM CDT (7/11) 10:12 PM CDT (7/11)
Length of Visible Light 16h 40m
Length of Day
15h 26m
Waxing Crescent, 11% of the Moon is Illuminated
Jul 11
Waxing Crescent
Jul 15
First Quarter
Jul 22
Full
Jul 29
Last Quarter
Aug 6
New

Hourly Weather History & Observations

Time (CDT) Temp. Dew Point Humidity Pressure Visibility Wind Dir Wind Speed Gust Speed Precip Events Conditions
12:53 AM 53.1 °F 51.1 °F 93% 30.06 in 10.0 mi Calm Calm - N/A   Clear
1:53 AM 55.9 °F 54.0 °F 93% 30.07 in 8.0 mi West 4.6 mph - N/A   Clear
2:53 AM 55.9 °F 54.0 °F 93% 30.08 in 8.0 mi West 4.6 mph - N/A   Clear
3:53 AM 55.0 °F 53.1 °F 93% 30.09 in 10.0 mi Calm Calm - N/A   Clear
4:30 AM 51.8 °F 48.2 °F 88% 30.10 in 1.5 mi West 3.5 mph - N/A   Clear
4:41 AM 51.8 °F 51.8 °F 100% 30.11 in 3.0 mi Calm Calm - N/A   Clear
4:53 AM 50.0 °F 48.0 °F 93% 30.11 in 10.0 mi Calm Calm - N/A   Clear
5:02 AM 50.0 °F 48.2 °F 94% 30.11 in 1.8 mi West 3.5 mph - N/A   Clear
5:14 AM 51.8 °F 50.0 °F 94% 30.12 in 3.0 mi West 3.5 mph - N/A   Clear
5:38 AM 50.0 °F 48.2 °F 94% 30.12 in 1.8 mi Calm Calm - N/A   Clear
5:48 AM 50.0 °F 48.2 °F 94% 30.12 in 0.5 mi Calm Calm - N/A Fog Fog
5:53 AM 50.0 °F 48.9 °F 96% 30.13 in 0.5 mi West 3.5 mph - N/A Fog Fog
6:12 AM 53.6 °F 51.8 °F 94% 30.13 in 2.5 mi Calm Calm - N/A   Clear
6:19 AM 53.6 °F 51.8 °F 94% 30.13 in 7.0 mi Calm Calm - N/A   Clear
6:53 AM 57.0 °F 54.0 °F 89% 30.13 in 9.0 mi Calm Calm - N/A   Clear
7:53 AM 64.0 °F 55.0 °F 73% 30.14 in 10.0 mi Calm Calm - N/A   Clear
8:53 AM 66.9 °F 52.0 °F 59% 30.16 in 10.0 mi Calm Calm - N/A   Clear
9:53 AM 69.1 °F 52.0 °F 54% 30.16 in 10.0 mi Calm Calm - N/A   Clear
10:53 AM 72.0 °F 51.1 °F 48% 30.15 in 10.0 mi West 4.6 mph - N/A   Clear
11:53 AM 73.9 °F 48.0 °F 40% 30.15 in 10.0 mi NNE 3.5 mph - N/A   Clear
12:53 PM 77.0 °F 48.9 °F 37% 30.14 in 10.0 mi Variable 3.5 mph - N/A   Clear
1:53 PM 78.1 °F 50.0 °F 37% 30.13 in 10.0 mi WNW 5.8 mph - N/A   Clear
2:53 PM 78.1 °F 50.0 °F 37% 30.12 in 10.0 mi SSW 5.8 mph - N/A   Clear
3:53 PM 79.0 °F 48.9 °F 35% 30.10 in 10.0 mi WSW 6.9 mph - N/A   Clear
4:53 PM 78.1 °F 50.0 °F 37% 30.10 in 10.0 mi Variable 3.5 mph - N/A   Clear
5:53 PM 77.0 °F 48.9 °F 37% 30.09 in 10.0 mi SW 5.8 mph - N/A   Clear
6:53 PM 75.9 °F 51.1 °F 42% 30.09 in 10.0 mi SSW 5.8 mph - N/A   Clear
7:53 PM 73.0 °F 53.1 °F 49% 30.08 in 10.0 mi SW 3.5 mph - N/A   Clear
8:53 PM 66.0 °F 55.9 °F 70% 30.08 in 10.0 mi Calm Calm - N/A   Clear
9:53 PM 61.0 °F 55.9 °F 83% 30.09 in 10.0 mi Calm Calm - N/A   Clear
10:53 PM 60.1 °F 55.0 °F 83% 30.09 in 10.0 mi Calm Calm - N/A   Clear
11:53 PM 62.1 °F 55.0 °F 78% 30.10 in 10.0 mi Calm Calm - N/A   Clear